Change the Weather History Date:

Monday, November 1, 2010

  Actual Average Record
Temperature  
Mean Temperature 57 °F 58 °F  
Max Temperature 69 °F 72 °F 85 °F (2004)
Min Temperature 45 °F 45 °F 31 °F (2012)
Degree Days  
Heating Degree Days 8 8  
Month to date heating degree days 8 8  
Since 1 July heating degree days 89 140  
Cooling Degree Days 0 1  
Month to date cooling degree days 0 1  
Year to date cooling degree days 2459 1895  
Growing Degree Days 8 (Base 50)    
Moisture  
Dew Point 46 °F    
Average Humidity 74    
Maximum Humidity 100    
Minimum Humidity 47    
Precipitation  
Precipitation 0.00 in 0.08 in 0.36 in (2013)
Month to date precipitation 0.00 0.08  
Year to date precipitation 33.17 37.84  
Sea Level Pressure  
Sea Level Pressure 30.20 in    
Wind  
Wind Speed 8 mph (NE)    
Max Wind Speed 16 mph    
Max Gust Speed 23 mph    
Visibility 10 miles    
Events      
T = Trace of Precipitation, MM = Missing Value Source: NWS Daily Summary

Daily Weather History Graph

Daily Weather History Graph

Search for Another Location

Airport or City:

Trip Planner

Search our weather history database for the weather conditions in past years. The results will help you decide how hot, cold, wet, or windy it might be!

Date:

Astronomy

Nov. 01, 2010 Rise Set
Actual Time 7:36 AM EDT 6:22 PM EDT
Civil Twilight 7:10 AM EDT 6:48 PM EDT
Nautical Twilight 6:40 AM EDT 7:18 PM EDT
Astronomical Twilight 6:11 AM EDT 7:47 PM EDT
Moon 2:23 AM EDT 3:18 PM EDT
Length of Visible Light 11h 38m
Length of Day
10h 45m
Waning Crescent, 26% of the Moon is Illuminated
Nov 1
Waning Crescent
Nov 6
New
Nov 13
First Quarter
Nov 21
Full
Nov 28
Last Quarter

Hourly Weather History & Observations

Time (EDT) Temp. Dew Point Humidity Pressure Visibility Wind Dir Wind Speed Gust Speed Precip Events Conditions
12:54 AM 48.0 °F 46.9 °F 96% 30.07 in 10.0 mi Calm Calm - N/A   Clear
1:54 AM 48.0 °F 46.0 °F 93% 30.08 in 8.0 mi Calm Calm - N/A   Clear
2:54 AM 46.9 °F 46.0 °F 97% 30.09 in 7.0 mi Calm Calm - N/A   Clear
3:54 AM 46.0 °F 45.0 °F 96% 30.09 in 10.0 mi Calm Calm - N/A   Clear
4:54 AM 51.1 °F 46.0 °F 83% 30.12 in 10.0 mi NE 11.5 mph - N/A   Clear
5:54 AM 51.1 °F 45.0 °F 80% 30.14 in 10.0 mi NE 9.2 mph - N/A   Clear
6:54 AM 51.1 °F 45.0 °F 80% 30.17 in 10.0 mi NE 10.4 mph - N/A   Clear
7:54 AM 50.0 °F 44.1 °F 80% 30.20 in 10.0 mi NNE 10.4 mph - N/A   Clear
8:54 AM 53.1 °F 42.1 °F 66% 30.22 in 10.0 mi NE 10.4 mph 18.4 mph N/A   Clear
9:54 AM 55.9 °F 43.0 °F 62% 30.25 in 10.0 mi NE 9.2 mph 18.4 mph N/A   Clear
10:54 AM 59.0 °F 45.0 °F 60% 30.24 in 10.0 mi NE 11.5 mph - N/A   Clear
11:54 AM 63.0 °F 46.9 °F 56% 30.24 in 10.0 mi ENE 9.2 mph 19.6 mph N/A   Clear
12:54 PM 66.0 °F 48.0 °F 52% 30.22 in 10.0 mi Variable 6.9 mph 17.3 mph N/A   Clear
1:54 PM 68.0 °F 48.9 °F 50% 30.21 in 10.0 mi ENE 9.2 mph - N/A   Clear
2:54 PM 69.1 °F 48.9 °F 49% 30.20 in 10.0 mi NNE 9.2 mph - N/A   Clear
3:54 PM 69.1 °F 48.9 °F 49% 30.20 in 10.0 mi NNE 11.5 mph - N/A   Clear
4:54 PM 68.0 °F 48.9 °F 50% 30.21 in 10.0 mi NE 10.4 mph - N/A   Clear
5:54 PM 64.9 °F 48.9 °F 56% 30.22 in 10.0 mi NE 8.1 mph - N/A   Clear
6:54 PM 60.1 °F 48.9 °F 67% 30.24 in 10.0 mi NNE 6.9 mph - N/A   Clear
7:54 PM 60.1 °F 46.0 °F 60% 30.26 in 10.0 mi NE 8.1 mph - N/A   Scattered Clouds
8:54 PM 59.0 °F 45.0 °F 60% 30.27 in 10.0 mi NE 9.2 mph - N/A   Overcast
9:54 PM 57.9 °F 42.1 °F 56% 30.28 in 10.0 mi ENE 11.5 mph - N/A   Overcast
10:54 PM 55.9 °F 41.0 °F 57% 30.30 in 10.0 mi NE 10.4 mph - N/A   Scattered Clouds
11:54 PM 54.0 °F 41.0 °F 62% 30.31 in 10.0 mi NE 8.1 mph - N/A   Partly Cloudy